Weather Roundup
Issued by NWS Chicago, IL

Home | Current Version | Previous Version | Graphics & Text | Print | Product List | Glossary On
Versions: 1 2 3 4 5 6 7 8 9 10 11 12 13 14 15 16 17 18 19 20 21 22 23 24 25 26 27 28 29 30 31 32 33 34 35 36 37 38 39 40 41 42 43 44 45 46 47 48 49 50
000
NZUS59 KLOT 231910
HRRLOT

CHICAGO AREA WEATHER ROUNDUP
NATIONAL WEATHER SERVICE CHICAGO/ROMEOVILLE IL
200 PM CDT TUE SEP 23 2014

NOTE: "FAIR" INDICATES FEW OR NO CLOUDS BELOW 12,000 FEET WITH NO
SIGNIFICANT WEATHER AND/OR OBSTRUCTIONS TO VISIBILITY.

* THESE STATIONS ARE NOT UNDER NWS QUALITY CONTROL. THEY ALSO MAY NOT
  REPORT WEATHER SUCH AS PRECIPITATION OR FOG.

ILZ005-006-012>014-019>023-232000-
NORTHEAST ILLINOIS

CITY           SKY/WX    TMP DP  RH WIND       PRES   REMARKS
OHARE          MOSUNNY   69  46  43 SW6       30.32F
MIDWAY         MOSUNNY   73  49  42 SW8       30.33F
AURORA         SUNNY     73  49  42 SW6       30.32F
LANSING*       SUNNY     71  49  45 SW6       30.33F
JOLIET*        SUNNY     71  47  41 E5        30.33F
WAUKEGAN       SUNNY     71  49  45 W5        30.31F
DUPAGE AIRPORT SUNNY     73  49  42 S8        30.32F
WHEELING       SUNNY     73  47  39 S5        30.33F
KANKAKEE*      SUNNY     71  49  45 E5        30.33F
MORRIS*        SUNNY     73  48  41 S5        30.31F
LEWIS AIRPORT* SUNNY     71  46  41 SE3       30.33F
NORTHERLY IS     N/A     67  52  58 E9          N/A
$$

WIZ051-052-058>065-066-070>072-232000-
SOUTHEAST WISCONSIN

CITY           SKY/WX    TMP DP  RH WIND       PRES   REMARKS
MILWAUKEE      MOSUNNY   73  50  44 VRB5      30.30F
KENOSHA*       SUNNY     72  51  47 SW7       30.32F
RACINE*        SUNNY     73  50  44 VRB3      30.32F
BURLINGTON     SUNNY     72  47  42 SW6       30.31F
WAUKESHA       SUNNY     70  48  46 W6        30.32F
WEST BEND      SUNNY     72  46  40 S5        30.30F
$$

INZ001>003-010>013-019-020-232000-
NORTHWEST INDIANA

CITY           SKY/WX    TMP DP  RH WIND       PRES   REMARKS
GARY*          MOSUNNY   72  46  40 CALM      30.34F
MICHIGAN CITY* NOT AVBL
RENSSELAER*    NOT AVBL
VALPARAISO     SUNNY     71  48  43 VRB5      30.34F
$$

LMZ740>746-232000-
SOUTHERN LAKE MICHIGAN

STATION/POSITION TIME  SKY/WX   TEMP WIND        PRES    VSBY
                                AIR  DIR/SP/G
                 (UTC)          (F)  (DEG/KT/KT) (MB)    (MI)
HARRISON CRIB    NOT AVBL
BURNHAM HARBOR   1900            68  100/  7/ 10   N/A
CALUMET HARBOR   1900            70   90/  1/  5 1025.8F
BURNS HARBOR     NOT AVBL
MICHIGAN CITY    NOT AVBL
$$

ABBREVIATIONS USED IN REMARKS
   TC - TEMPERATURE IN CELSIUS
  WCI - WIND CHILL INDEX
   HX - HEAT INDEX
  VSB - VISIBILITY
$$



USA.gov is the U.S. government's official web portal to all federal, state and local government web resources and services.